Location: St. Louis
(38.6270°N, 90.1994°W)
Time: 20:22:48
(UTC-06:00)

ISS - Pass Details

Date: 06 August 2017
Orbit: 402 x 407 km, 51.6° (Epoch: 10 December)

Event Time Altitude Azimuth Distance (km) Brightness Sun altitude
Rises 23:04:31 0° 306° (NW) 2,316 1.1 -28.0°
Reaches altitude 10° 23:06:37 10° 303° (WNW) 1,454 -0.2 -28.2°
Enters shadow 23:07:18 15° 301° (WNW) 1,179 -0.8 -28.3°
